Location: Burgerwiesen
(48.6500°N, 15.6167°E)
Time: 07:37:27
(UTC+00:00)

Spot 2 Rocket - Pass Details

Date: 09 April 2020
Orbit: 757 x 772 km, 98.6° (Epoch: 03 June)

Event Time Altitude Azimuth Distance (km) Brightness Sun altitude
Exits shadow 20:22:14 35° 204° (SSW) 1,240 4.3 -23.8°
Maximum altitude 20:24:06 52° 260° (W) 955 4.1 -24.0°
Drops below altitude 10° 20:29:06 10° 337° (NNW) 2,323 6.9 -24.5°
Sets 20:31:29 0° 342° (NNW) 3,253 7.8 -24.8°
